Weather History for KNBC - February, 2014

Change the Weather History Date:

Wednesday, February 26, 2014

  Actual Average Record
Temperature  
Mean Temperature 50 °F -  
Max Temperature 55 °F 63 °F 55 °F (2014)
Min Temperature 45 °F 39 °F 39 °F (2015)
Degree Days  
Heating Degree Days 15    
Moisture  
Dew Point 47 °F    
Average Humidity 86    
Maximum Humidity 93    
Minimum Humidity 72    
Precipitation  
Precipitation 0.46 in - - ()
Sea Level Pressure  
Sea Level Pressure 29.84 in    
Wind  
Wind Speed 4 mph (NNW)    
Max Wind Speed 16 mph    
Max Gust Speed -    
Visibility 6 miles    
Events Rain    
Averages and records for this station are not official NWS values.
T = Trace of Precipitation, MM = Missing Value Source: NWS Daily Summary

Daily Weather History Graph

Daily Weather History Graph

Search for Another Location

Airport or City:

Trip Planner

Search our weather history database for the weather conditions in past years. The results will help you decide how hot, cold, wet, or windy it might be!

Date:

Astronomy

Feb. 26, 2014 Rise Set
Actual Time 6:53 AM EST 6:17 PM EST
Civil Twilight 6:29 AM EST 6:42 PM EST
Nautical Twilight 6:00 AM EST 7:11 PM EST
Astronomical Twilight 5:32 AM EST 7:39 PM EST
Moon 4:31 AM EST (2/26) 3:37 PM EST (2/26)
Length of Visible Light 12h 13m
Length of Day
11h 24m
Waning Crescent, 10% of the Moon is Illuminated
Feb 26
Waning Crescent
Mar 1
New
Mar 8
First Quarter
Mar 16
Full
Mar 23
Last Quarter

Hourly Weather History & Observations

Time (EST) Temp. Windchill Dew Point Humidity Pressure Visibility Wind Dir Wind Speed Gust Speed Precip Events Conditions
12:56 AM 55.0 °F - 46.0 °F 72% 29.91 in 10.0 mi Calm Calm - N/A   Mostly Cloudy
1:56 AM 55.0 °F - 48.9 °F 80% 29.91 in 10.0 mi Calm Calm - N/A   Mostly Cloudy
2:56 AM 53.1 °F - 46.0 °F 77% 29.88 in 10.0 mi WSW 4.6 mph - N/A   Scattered Clouds
3:56 AM 54.0 °F - 46.0 °F 75% 29.86 in 10.0 mi SW 4.6 mph - N/A   Scattered Clouds
4:56 AM 55.0 °F - 46.9 °F 74% 29.84 in 10.0 mi Calm Calm - N/A   Clear
5:56 AM 55.0 °F - 48.9 °F 80% 29.85 in 10.0 mi NNW 3.5 mph - N/A   Scattered Clouds
6:56 AM 55.0 °F - 48.0 °F 77% 29.84 in 10.0 mi WSW 4.6 mph - N/A   Overcast
7:56 AM 55.0 °F - 51.1 °F 86% 29.85 in 5.0 mi Calm Calm - 0.00 in Rain Light Rain
8:26 AM 55.0 °F - 51.1 °F 86% 29.88 in 2.5 mi NW 11.5 mph - 0.05 in Rain Rain
8:56 AM 54.0 °F - 51.1 °F 90% 29.89 in 2.5 mi North 8.1 mph - 0.09 in Rain Rain
9:56 AM 53.1 °F - 50.0 °F 89% 29.89 in 2.5 mi North 9.2 mph - 0.04 in Rain Rain
10:03 AM 53.1 °F - 50.0 °F 89% 29.89 in 4.0 mi NNW 8.1 mph - 0.00 in Rain Rain
10:15 AM 53.1 °F - 50.0 °F 89% 29.89 in 2.0 mi North 6.9 mph - 0.02 in Rain Rain
10:39 AM 53.1 °F - 50.0 °F 89% 29.89 in 1.5 mi Variable 3.5 mph - 0.09 in Rain Rain
10:56 AM 52.0 °F - 50.0 °F 93% 29.89 in 1.5 mi NNW 4.6 mph - 0.14 in Rain Rain
11:56 AM 52.0 °F - 50.0 °F 93% 29.87 in 3.0 mi North 9.2 mph - N/A Rain Rain
12:56 PM 51.1 °F - 48.0 °F 89% 29.86 in 2.5 mi NNW 5.8 mph - 0.08 in Rain Rain
1:33 PM 51.1 °F - 48.0 °F 89% 29.82 in 4.0 mi NW 4.6 mph - 0.04 in Rain Rain
1:56 PM 51.1 °F - 48.0 °F 89% 29.80 in 4.0 mi NNW 4.6 mph - 0.06 in Rain Light Rain
2:41 PM 51.1 °F - 48.0 °F 89% 29.76 in 5.0 mi Calm Calm - 0.02 in Rain Light Rain
2:56 PM 52.0 °F - 48.0 °F 86% 29.76 in 5.0 mi Calm Calm - 0.02 in Rain Light Rain
3:56 PM 52.0 °F - 48.9 °F 89% 29.78 in 5.0 mi NW 10.4 mph - 0.01 in Rain Light Rain
4:56 PM 50.0 °F - 46.9 °F 89% 29.78 in 6.0 mi NNW 5.8 mph - 0.00 in   Overcast
5:11 PM 50.0 °F - 46.9 °F 89% 29.77 in 6.0 mi NNW 4.6 mph - N/A   Overcast
5:26 PM 50.0 °F - 46.0 °F 86% 29.77 in 6.0 mi NNW 6.9 mph - N/A   Overcast
5:45 PM 50.0 °F - 46.9 °F 89% 29.78 in 6.0 mi North 6.9 mph - N/A   Overcast
5:56 PM 50.0 °F - 46.0 °F 86% 29.79 in 6.0 mi North 9.2 mph - N/A   Overcast
6:54 PM 48.2 °F - 44.6 °F 87% 29.80 in 10.0 mi North 6.9 mph - N/A   Overcast
6:56 PM 48.9 °F - 45.0 °F 86% 29.81 in 10.0 mi North 8.1 mph - N/A   Overcast
7:46 PM 48.9 °F - 45.0 °F 86% 29.81 in 5.0 mi NNE 16.1 mph - N/A   Overcast
7:56 PM 46.9 °F - 44.1 °F 90% 29.83 in 3.0 mi North 13.8 mph - N/A   Overcast
8:56 PM 45.0 °F 39.7 °F 42.1 °F 90% 29.86 in 7.0 mi NNE 10.4 mph - 0.01 in Rain Light Rain
9:56 PM 45.0 °F - 42.1 °F 90% 29.86 in 6.0 mi Calm Calm - 0.00 in   Light Drizzle
10:03 PM 45.0 °F - 42.1 °F 90% 29.85 in 8.0 mi Calm Calm - 0.00 in   Light Drizzle
10:56 PM 46.0 °F 43.1 °F 42.1 °F 86% 29.87 in 10.0 mi NNW 5.8 mph - 0.01 in   Overcast
11:56 PM 45.0 °F 41.2 °F 42.1 °F 90% 29.86 in 9.0 mi North 6.9 mph - N/A   Overcast